Weather History for Budapest Ferihegy, Hungary

Change the Weather History Date:

Saturday, November 10, 2012

  Actual Average Record
Temperature  
Mean Temperature 36 °F -  
Max Temperature 44 °F 42 °F 62 °F (1997)
Min Temperature 28 °F 30 °F 28 °F (1996)
Degree Days  
Heating Degree Days 29    
Moisture  
Dew Point 38 °F    
Average Humidity 97    
Maximum Humidity 100    
Minimum Humidity 87    
Precipitation  
Precipitation 0.00 in - - ()
Sea Level Pressure  
Sea Level Pressure 30.15 in    
Wind  
Wind Speed 6 mph ()    
Max Wind Speed 14 mph    
Max Gust Speed -    
Visibility 2.2 miles    
Events Fog    
Averages and records for this station are not official NWS values.
T = Trace of Precipitation, MM = Missing Value Source: Averaged Metar Reports

Daily Weather History Graph

Daily Weather History Graph

Search for Another Location

Airport:

Trip Planner

Search our weather history database for the weather conditions in past years. The results will help you decide how hot, cold, wet, or windy it might be!

Date:

Astronomy

Nov. 10, 2012 Rise Set
Actual Time 6:40 AM CET 4:12 PM CET
Civil Twilight 6:07 AM CET 4:45 PM CET
Nautical Twilight 5:30 AM CET 5:22 PM CET
Astronomical Twilight 4:54 AM CET 5:58 PM CET
Moon 2:09 AM CET (11/10) 2:02 PM CET (11/10)
Length of Visible Light 10h 38m
Length of Day
9h 32m
Waning Crescent, 16% of the Moon is Illuminated
Nov 10
Waning Crescent
Nov 13
New
Nov 20
First Quarter
Nov 28
Full
Dec 6
Last Quarter

Hourly Weather History & Observations

Time (CET) Temp. Windchill Dew Point Humidity Pressure Visibility Wind Dir Wind Speed Gust Speed Precip Events Conditions
12:00 AM 33.8 °F - 33.8 °F 100% 30.18 in 2.5 mi Variable 1.2 mph - N/A Fog Patches of Fog
12:30 AM 30.2 °F - 30.2 °F 100% 30.21 in 2.5 mi Calm Calm - N/A Fog Patches of Fog
1:00 AM 32.0 °F 27.5 °F 32.0 °F 100% 30.18 in 3.1 mi East 4.6 mph - N/A   Mostly Cloudy
1:30 AM 37.4 °F 32.1 °F 37.4 °F 100% 30.18 in 3.1 mi East 6.9 mph - N/A   Scattered Clouds
2:00 AM 33.8 °F 27.0 °F 32.0 °F 93% 30.18 in 3.1 mi East 8.1 mph - N/A   Mist
2:30 AM 32.0 °F - 32.0 °F 100% 30.18 in 2.2 mi Calm Calm - N/A   Mist
3:00 AM 35.6 °F 29.2 °F 35.6 °F 100% 30.15 in 1.9 mi East 8.1 mph - N/A Fog Fog
3:30 AM 30.2 °F 25.4 °F 30.2 °F 100% 30.18 in 1.9 mi WSW 4.6 mph - N/A Fog Shallow Fog
4:00 AM 30.2 °F - 30.2 °F 100% 30.18 in 1.9 mi Variable 1.2 mph - N/A Fog Fog
4:30 AM 30.2 °F - 30.2 °F 100% 30.18 in 0.6 mi Calm Calm - N/A Fog Light Freezing Fog
5:00 AM 33.8 °F 29.6 °F 33.8 °F 100% 30.18 in 0.1 mi ENE 4.6 mph - N/A Fog Fog
5:30 AM 35.6 °F 29.9 °F 35.6 °F 100% 30.18 in 0.1 mi East 6.9 mph - N/A Fog Fog
6:00 AM 35.6 °F - 35.6 °F 100% 30.18 in 0.3 mi Variable 1.2 mph - N/A Fog Fog
6:30 AM 35.6 °F 32.8 °F 35.6 °F 100% 30.18 in 0.4 mi Variable 3.5 mph - N/A Fog Fog
7:00 AM 28.4 °F 23.3 °F 28.4 °F 100% 30.18 in 0.7 mi WNW 4.6 mph - N/A Fog Patches of Fog
7:30 AM 32.0 °F 28.7 °F 30.2 °F 93% 30.18 in 0.2 mi Variable 3.5 mph - N/A Fog Fog
8:00 AM 33.8 °F - 33.8 °F 100% 30.21 in 0.2 mi Variable 1.2 mph - N/A Fog Fog
8:30 AM 37.4 °F 33.8 °F 37.4 °F 100% 30.21 in 0.1 mi East 4.6 mph - N/A Fog Fog
9:00 AM 37.4 °F 32.1 °F 37.4 °F 100% 30.18 in 0.2 mi East 6.9 mph - N/A Fog Fog
9:30 AM 41.0 °F 34.7 °F 41.0 °F 100% 30.18 in 1.6 mi ESE 10.4 mph - N/A   Mostly Cloudy
10:00 AM 41.0 °F 34.7 °F 41.0 °F 100% 30.18 in 1.2 mi SE 10.4 mph - N/A   Mostly Cloudy
10:30 AM 41.0 °F 35.2 °F 41.0 °F 100% 30.18 in - SE 9.2 mph - N/A   Overcast
11:00 AM 41.0 °F 34.3 °F 41.0 °F 100% 30.18 in 2.2 mi East 11.5 mph - N/A   Overcast
11:30 AM 41.0 °F 34.7 °F 41.0 °F 100% 30.18 in 2.5 mi ESE 10.4 mph - N/A   Mostly Cloudy
12:00 PM 42.8 °F 36.6 °F 42.8 °F 100% 30.18 in 3.1 mi ESE 11.5 mph - N/A   Mostly Cloudy
12:30 PM 42.8 °F 36.6 °F 41.0 °F 93% 30.18 in 2.5 mi ESE 11.5 mph - N/A   Overcast
1:00 PM 42.8 °F 36.6 °F 41.0 °F 93% 30.15 in 2.5 mi ESE 11.5 mph - N/A   Overcast
1:30 PM 42.8 °F 36.2 °F 41.0 °F 93% 30.15 in 2.5 mi ESE 12.7 mph - N/A   Overcast
2:00 PM 42.8 °F 36.2 °F 41.0 °F 93% 30.15 in 3.1 mi ESE 12.7 mph - N/A   Overcast
2:30 PM 44.6 °F 38.1 °F 41.0 °F 87% 30.12 in 3.1 mi ESE 13.8 mph - N/A   Mostly Cloudy
3:00 PM 42.8 °F 35.8 °F 41.0 °F 93% 30.12 in 3.1 mi ESE 13.8 mph - N/A   Mostly Cloudy
3:30 PM 42.8 °F 36.2 °F 41.0 °F 93% 30.12 in 3.1 mi ESE 12.7 mph - N/A   Mostly Cloudy
4:00 PM 42.8 °F 35.8 °F 41.0 °F 93% 30.12 in 3.1 mi ESE 13.8 mph - N/A   Mostly Cloudy
4:30 PM 41.0 °F 34.3 °F 39.2 °F 93% 30.12 in 3.1 mi East 11.5 mph - N/A   Mostly Cloudy
5:00 PM 41.0 °F 33.9 °F 39.2 °F 93% 30.12 in 3.1 mi ESE 12.7 mph - N/A   Mostly Cloudy
5:30 PM 41.0 °F 34.7 °F 39.2 °F 93% 30.12 in 3.1 mi East 10.4 mph - N/A   Overcast
6:00 PM 41.0 °F 34.3 °F 39.2 °F 93% 30.12 in 3.1 mi East 11.5 mph - N/A   Mostly Cloudy
6:30 PM 41.0 °F 35.2 °F 41.0 °F 100% 30.12 in 2.5 mi East 9.2 mph - N/A   Scattered Clouds
7:00 PM 41.0 °F 34.3 °F 41.0 °F 100% 30.09 in 2.2 mi East 11.5 mph - N/A   Scattered Clouds
7:30 PM 42.8 °F 36.2 °F 41.0 °F 93% 30.12 in 2.5 mi ESE 12.7 mph - N/A   Scattered Clouds
8:00 PM 44.6 °F 38.8 °F 42.8 °F 93% 30.09 in 3.1 mi ESE 11.5 mph - N/A   Mist
8:30 PM 42.8 °F 36.2 °F 41.0 °F 93% 30.09 in 2.5 mi ESE 12.7 mph - N/A   Mist
9:00 PM 42.8 °F 36.6 °F 41.0 °F 93% 30.12 in 2.5 mi ESE 11.5 mph - N/A   Mist
9:30 PM 42.8 °F 37.5 °F 41.0 °F 93% 30.12 in 2.2 mi East 9.2 mph - N/A   Mist
10:00 PM 42.8 °F 36.6 °F 42.8 °F 100% 30.09 in 2.5 mi East 11.5 mph - N/A   Mist
10:30 PM 42.8 °F 36.6 °F 41.0 °F 93% 30.09 in 3.1 mi East 11.5 mph - N/A   Mist
11:00 PM 42.8 °F 36.6 °F 41.0 °F 93% 30.09 in 4.3 mi East 11.5 mph - N/A   Unknown
11:30 PM 42.8 °F 36.6 °F 41.0 °F 93% 30.09 in 4.3 mi East 11.5 mph - N/A   Unknown